User: anonymous   Login
Location: Biharia
(46.4333°N, 22.8000°E)
Time: 22:55:15
(UTC+00:00)
Language:

COSMOS 2251 DEB - Orbit

View from above orbital plane
View from above orbital plane
View from above satellite
View from above satellite

Ground track
Ground track

The orbit data is extracted from the following two-line orbital elements,

1 34066U 93036KD  22222.41429301  .00013899  00000-0  25002-2 0  9995
2 34066  74.0009   9.5674 0238586  95.6368 298.2385 14.49772277704166
Epoch (UTC): 10 August 2022 09:56:34
Eccentricity: 0.0238586
inclination: 74.0009°
perigee height: 557 km
apogee height: 896 km
right ascension of ascending node: 9.5674°
argument of perigee: 95.6368°
revolutions per day: 14.49772277
mean anomaly at epoch: 298.2385°
orbit number at epoch: 70416

The dashed part of the orbit path shows where the satellite is in the earth's shadow,  

DLR